AirNav   Duncan Aviation - Near you to keep you flying
 
 595 users online  

1C5 Bolingbrook's Clow International Airport
Bolingbrook, Illinois, USA

GOING TO BOLINGBROOK?


FAA INFORMATION EFFECTIVE 01 DECEMBER 2022

Location

FAA Identifier: 1C5
Lat/Long: 41-41-45.3000N 088-07-46.2000W
41-41.755000N 088-07.770000W
41.6959167,-88.1295000
(estimated)
Elevation: 674.9 ft. / 206 m (estimated)
Variation: 04W (2020)
Time zone: UTC -6 (UTC -5 during Daylight Saving Time)
Zip code: 60490

Airport Operations

Airport use: Open to the public
Activation date: 03/1967
Control tower: no
ARTCC: CHICAGO CENTER
FSS: KANKAKEE FLIGHT SERVICE STATION
NOTAMs facility: IKK (NOTAM-D service available)
Attendance: 0700-1800
Pattern altitude: 1504.9 ft. MSL
Wind indicator: lighted
Segmented circle: no
Lights: MIRL RY 18/36 PRESET LOW INTST DUSK-DAWN TO INCR INTST - CTAF
Beacon: white-green (lighted land airport)
Operates sunset to sunrise.

Airport Communications

CTAF: 122.9
CHICAGO APPROACH: 119.35
CHICAGO DEPARTURE: 119.35
IC: 119.35
WX AWOS-3 at LOT (5 nm S): 118.525 (815-588-4802)
WX AWOS-3 at JOT (11 nm S): 119.975 (815-730-9560)
WX ASOS at DPA (14 nm NW): PHONE 630-587-3668
WX ASOS at ARR (16 nm W): PHONE 630-466-5622
WX AWOS-3 at 06C (18 nm N): 128.275 ((847) 895-2887)
WX ASOS at MDW (18 nm E): PHONE 773-884-4424
WX ASOS at ORD (20 nm NE): PHONE 773-462-0118

Nearby radio navigation aids

VOR radial/distance  VOR name  Freq  Var
JOTr041/12.3JOLIET VOR/DME112.3002E
DPAr138/15.3DUPAGE VOR/DME108.4002E
CGTr292/27.4CHICAGO HEIGHTS VORTAC114.2002E
EONr327/29.8PEOTONE VORTAC113.2002E
OBKr196/32.5NORTHBROOK VOR/DME113.0002W

Airport Services

Fuel available: 100LL JET-A
Parking: hangars and tiedowns
Airframe service: MAJOR
Powerplant service: MAJOR
Bottled oxygen: NONE
Bulk oxygen: NONE

Runway Information

Runway 18/36

Dimensions: 3360 x 75 ft. / 1024 x 23 m
Surface: asphalt, in good condition
Weight bearing capacity: 
Single wheel: 12.5
Runway edge lights: medium intensity
RUNWAY 18  RUNWAY 36
Latitude: 41-42.031245N41-41.478230N
Longitude: 088-07.779947W088-07.758665W
Elevation: 674.9 ft.657.0 ft.
Traffic pattern: leftleft
Runway heading: 182 magnetic, 178 true002 magnetic, 358 true
Markings: nonprecision, in good conditionnonprecision, in good condition
Touchdown point: yes, no lightsyes, no lights

Airport Ownership and Management from official FAA records

Ownership: Publicly-owned
Owner: VILLAGE OF BOLINGBROOK
375 W BRIARCLIFF ROAD
BOLINGBROOK, IL 60440
Phone 630-226-8400
Manager: JOSEPH DE PAULO
130 S CLOW INTL PARKWAY
BOLINGBROOK, IL 60490
Phone 630-378-0479
EMAIL ADDRESS: JOEDEPAULO@GMAIL.COM

Airport Operational Statistics

Aircraft based on the field: 50
Single engine airplanes: 43
Multi engine airplanes: 6
Helicopters: 1
    
Aircraft operations: avg 137/day *
52% local general aviation
44% transient general aviation
4% air taxi
* for 12-month period ending 31 July 2020

Additional Remarks

A30A-18 USE RWY 18 IN CALM WND OR DRCT CROSSWINDS.
TWY 20 FT WIDE; LARGE ACFT CONSIDER BACK-TAXI.
NO TGL; FULL STOP LDG ONLY.
FOR CD CTC CHICAGO APCH AT 847-289-0926.
FLT SCHOOL OPS ONLY - 123.50.
WILDLIFE ON AND INVOF ARPT.
RESTAURANT ON ARPT.

Instrument Procedures

NOTE: All procedures below are presented as PDF files. If you need a reader for these files, you should download the free Adobe Reader.

NOT FOR NAVIGATION. Please procure official charts for flight.
FAA instrument procedures published for use from 01 December 2022 at 0901Z to 29 December 2022 at 0900z.

 
IAPs - Instrument Approach Procedures
RNAV (GPS)-B   download (172KB)
VOR-A   download (178KB)
NOTE: Special Take-Off Minimums/Departure Procedures apply   download (369KB)

Other nearby airports with instrument procedures:

KLOT - Lewis University Airport (5 nm S)
KDPA - DuPage Airport (14 nm NW)
KARR - Aurora Municipal Airport (16 nm W)
KMDW - Chicago Midway International Airport (18 nm E)
KORD - Chicago O'Hare International Airport (20 nm NE)
 
Loc | Ops | Rwys | IFR | FBO | Links
Com | Nav | Svcs | Stats | Notes
Area around 1C5 (Bolingbrook's Clow International Airport)
 
Road maps at: MapQuest Bing Google
 
Aerial photo
WARNING: Photo may not be current or correct
Aerial photo of 1C5 (Bolingbrook's Clow International Airport)
Taken in 2016
looking southeast.

Do you have a better or more recent aerial photo of Bolingbrook's Clow International Airport that you would like to share? If so, please send us your photo.

 
Sectional chart

 
Airport distance calculator
Flying to Bolingbrook's Clow International Airport? Find the distance to fly.

From to 1C5

Sunrise and sunset
Times for 07-Dec-2022
 Local
(UTC-6)
 Zulu
(UTC)
Morning civil twilight06:3612:36
Sunrise07:0713:07
Sunset16:2122:21
Evening civil twilight16:5222:52

Current date and time
Zulu (UTC)  07-Dec-2022 09:36:39
Local (UTC-6)  07-Dec-2022 03:36:39
 
METAR
KLOT 
5nm S 
070910Z AUTO 35006KT 2 1/2SM BR OVC006 03/03 A3015 RMK AO2
KJOT 
11nm S 
070915Z AUTO 36003KT 3SM BR OVC009 05/04 A3015 RMK AO2 T00450035
KDPA 
14nm N 
070852Z 34004KT 1/2SM R02L/1800FT FG VV002 03/02 A3013 RMK AO2 SLP208 T00280017 53013
KARR 
16nm W 
070920Z AUTO 01003KT 3/4SM BR VV003 02/02 A3013 RMK AO2 T00170017
K06C 
18nm N 
070915Z AUTO 00000KT 1/4SM OVC003 02/02 A3014 RMK AO2 T00230023
KMDW 
18nm E 
070853Z 32006KT 4SM BR OVC010 04/02 A3013 RMK AO2 SLP211 T00390022 53013
KORD 
19nm NE 
070851Z 30006KT 1 1/4SM BR OVC003 03/02 A3013 RMK AO2 SLP207 T00330017 53012
TAF
KDPA 
14nm N 
070758Z 0708/0806 34003KT 1SM BR SCT002 OVC004 TEMPO 0708/0712 1/4SM FG VV002 FM071200 33004KT 3SM BR OVC004 FM071800 30005KT P6SM BKN010 FM072100 35006KT P6SM BKN025
KMDW 
18nm E 
070523Z 0706/0812 34005KT 6SM BR OVC010 TEMPO 0712/0716 5SM BR OVC006 FM072100 35006KT P6SM BKN025
KORD 
19nm NE 
070821Z 0708/0812 34005KT 2SM BR SCT003 OVC005 TEMPO 0708/0712 1SM BR OVC003 FM071200 34005KT 6SM BR SCT005 OVC008 TEMPO 0712/0716 4SM BR OVC005 FM072100 35006KT P6SM BKN025
NOTAMs
Click for the latest NOTAMs
NOTAMs are issued by the DoD/FAA and will open in a separate window not controlled by AirNav.

 

 
 

FBO, Fuel Providers, and Aircraft Ground Support

  
 Business Name 
 
 Contact 
 
 Services / Description 
 
Fuel Prices
 
Comments
  
JW Aviation 630-759-1555
[web site]
[email]
Aviation fuel, Aircraft parking (ramp or tiedown), Hangars, Flight training, Aircraft rental, Aerial tours / aerial sightseeing, Pilot supplies, Flying club, ...

More info about JW Aviation
Phillips 66
100LL Jet A
AS $6.75 $5.50 
SS $6.75 $5.50 
 Updated 30-Nov-2022
 
   2 read write
AS=Assisted/Self Service
SS=Self service
Update Fuel Prices
 

Where to Eat: Catering, Restaurants, Food shops

  
 Business Name 
 
 Contact 
 
 Services / Description 
 
Distance
 
Comments
  
Charlie's at 1C5 630-771-0501
no information available

If you are affiliated with Charlie's at 1C5 and would like to show here your services, contact info, web link, logo, and more, click here
on airport  
   1 read write
 

Would you like to see your business listed on this page?

 If your business provides an interesting product or service to pilots, flight crews, aircraft, or users of the Bolingbrook's Clow International Airport, you should consider listing it here.  To start the listing process, click on the button below
 
Add a business
 

Other Pages about Bolingbrook's Clow International Airport

bbclowairport.com
 
Update a link
 
Copyright © AirNav, LLC. All rights reserved. Privacy Policy  Contact